Regional Weather Roundup
Issued by NWS

Home | Current Version | Previous Version | Graphics & Text | Print | Product List | Glossary On
Versions: 1 2 3 4 5 6 7 8 9 10 11 12 13 14 15 16 17 18 19 20 21 22 23 24 25 26 27 28 29 30 31 32 33 34 35 36 37 38 39 40 41 42 43 44 45 46 47 48 49 50
000
ASUS45 KCYS 222010
RWRWY

WYOMING REGIONAL WEATHER ROUNDUP
NATIONAL WEATHER SERVICE CHEYENNE WY
200 PM MDT FRI MAY 22 2015

NOTE:  "FAIR" INDICATES FEW OR NO CLOUDS BELOW 12,000 FEET
WITH NO SIGNIFICANT WEATHER AND/OR OBSTRUCTIONS TO VISIBILITY.

WYZ001-222100-
YELLOWSTONE NATIONAL PARK

CITY           SKY/WX    TMP DP  RH WIND       PRES   REMARKS
LK YELLOWSTONE   N/A     49  37  63 VRB7      30.02F
W YELLOWSTONE  NOT AVBL

$$
WYZ002>013-054>058-071-098>099-222100-
NORTHERN WYOMING

CITY           SKY/WX    TMP DP  RH WIND       PRES   REMARKS
JACKSON        PTSUNNY   59  36  41 VRB5      29.93F
CODY           CLOUDY    57  43  58 NW8       29.94R
GREYBULL       PTSUNNY   69  42  37 SE5       29.88F
WORLAND        FAIR      65  45  48 VRB7      29.90F
SHERIDAN       FAIR      64  45  49 SE22G30   29.93F
BUFFALO        CLOUDY    55  43  63 SE16      30.00R
GILLETTE       CLOUDY    55  43  63 SE24G31   30.02S
HULETT         CLOUDY    59  41  51 S9        30.05R
NEWCASTLE      MOCLDY    54  41  62 SE13      30.07S

$$
WYZ014>020-022>026-101>103-222100-
CENTRAL WYOMING

CITY           SKY/WX    TMP DP  RH WIND       PRES   REMARKS
BIG PINEY      CLOUDY    56  37  49 NW12      29.95F
PINEDALE       TSTM      45  41  87 NE15      29.98R
DUBOIS         FAIR      54  37  54 E12       29.97F
LANDER         FAIR      57  46  66 VRB6      29.94F
RIVERTON       CLOUDY    52  47  83 E6        29.96F
CASPER         LGT RAIN  51  46  83 E10       29.97S
DOUGLAS        LGT RAIN  51  47  86 SE18      30.02S

$$
WYZ021-027>030-104>119-222100-
SOUTHERN WYOMING

CITY           SKY/WX    TMP DP  RH WIND       PRES   REMARKS
EVANSTON       PTSUNNY   54  40  59 SW13      29.96F
KEMMERER       MOCLDY    52  37  58 N15       29.98R
FORT BRIDGER   CLOUDY    54  39  58 W3        29.99F
ROCK SPRINGS   CLOUDY    49  40  71 S8        29.98S
DIXON          CLOUDY    50  41  72 CALM      30.03F
RAWLINS        LGT RAIN  47  43  86 W7        29.99F
SARATOGA       CLOUDY    48  41  76 SW10      30.02R
LARAMIE        LGT RAIN  45  40  82 S15       30.01R
CHEYENNE       LGT RAIN  45  42  89 SE13      30.04S
TORRINGTON     LGT RAIN  49  46  90 SE16      30.04S
PINE BLUFFS    LGT RAIN  46  45  93 SE15G22   30.05R

$$


USA.gov is the U.S. government's official web portal to all federal, state and local government web resources and services.